Voltar ao catálogo

FREGAT DEB

LostUNKNOWN
NORAD 45963·DEBRIS·🇷🇺 Russia

Lançado Jul 18, 2011 de Baikonur Cosmodrome

Loading…

Próximas Passagens (próximas 24 horas)

TLE

EnvelhecendoSource: Space-Track

Época: Aug 12, 2026, 00:37 UTC

1 45963U 11037FU  26224.02620491 -.00019375  00000-0 -65258-1 0  9993
2 45963  51.2481 130.1839 1916463 270.6512  67.6360 10.34137189225338

Acompanhe FREGAT DEB em tempo real com AllMySat

Download on the App Store